When you browse on this site, cookies collect data to enhance your experience and personalize the content and advertising you see.
Visit our Privacy Policy to learn more. By continuing to use the site, you agree to this use of cookies and data.
  • en Suisse
  • Liste des pays
  • À 7 jours
  • Température de l'eau
  • Carte météo
  • Widgets météo
  • user-avatar
    Se connecter

    Météo par heure à Kingston upon Thames

    Ce jour, 21 Février, Vendredi

    Heure Température Précipitation Vent Pression Humidité
    00:00 +2°C° 0 mm 5 m/s 764 mmHg 78%
    01:00 +2°C° 0 mm 5 m/s 765 mmHg 78%
    02:00 +2°C° 0 mm 5 m/s 765 mmHg 79%
    03:00 +2°C° 0 mm 5 m/s 765 mmHg 79%
    04:00 +2°C° 0 mm 5 m/s 765 mmHg 80%
    05:00 +2°C° 0 mm 5 m/s 765 mmHg 81%
    06:00 +3°C° 0 mm 5 m/s 765 mmHg 82%
    13:00 +7°C° 0 mm 8 m/s 765 mmHg 73%
    14:00 +7°C° 0 mm 8 m/s 764 mmHg 73%
    15:00 +9°C° 0 mm 8 m/s 764 mmHg 74%
    16:00 +7°C° 0 mm 8 m/s 763 mmHg 76%
    17:00 +7°C° 0 mm 8 m/s 763 mmHg 78%
    18:00 +6°C° 0 mm 8 m/s 763 mmHg 81%
    19:00 +6°C° 0 mm 9 m/s 763 mmHg 80%
    20:00 +7°C° 0 mm 9 m/s 763 mmHg 79%
    21:00 +7°C° 0 mm 9 m/s 762 mmHg 78%
    22:00 +7°C° 0 mm 9 m/s 762 mmHg 78%
    23:00 +7°C° 0 mm 10 m/s 762 mmHg 78%

    Demain, 22 Février, Samedi

    Heure Température Précipitation Vent Pression Humidité
    00:00 +7°C° 0 mm 10 m/s 762 mmHg 78%
    01:00 +7°C° 0 mm 10 m/s 761 mmHg 79%
    02:00 +7°C° 0 mm 10 m/s 760 mmHg 79%
    03:00 +8°C° 0 mm 10 m/s 759 mmHg 80%
    04:00 +8°C° 0.1 mm 10 m/s 759 mmHg 82%
    05:00 +8°C° 0.1 mm 10 m/s 759 mmHg 83%
    06:00 +9°C° 0.1 mm 10 m/s 759 mmHg 84%
    07:00 +9°C° 0.1 mm 10 m/s 760 mmHg 80%
    08:00 +9°C° 0.1 mm 10 m/s 760 mmHg 77%
    09:00 +10°C° 0.1 mm 9 m/s 761 mmHg 73%
    10:00 +10°C° 0 mm 9 m/s 761 mmHg 70%
    11:00 +9°C° 0 mm 10 m/s 762 mmHg 67%
    12:00 +9°C° 0 mm 10 m/s 762 mmHg 64%
    13:00 +9°C° 0 mm 10 m/s 763 mmHg 63%
    14:00 +8°C° 0 mm 10 m/s 763 mmHg 63%
    15:00 +8°C° 0 mm 10 m/s 763 mmHg 62%
    16:00 +8°C° 0 mm 9 m/s 763 mmHg 64%
    17:00 +7°C° 0 mm 8 m/s 764 mmHg 65%
    18:00 +6°C° 0 mm 8 m/s 764 mmHg 66%
    19:00 +6°C° 0 mm 7 m/s 764 mmHg 69%
    20:00 +7°C° 0 mm 6 m/s 765 mmHg 71%
    21:00 +5°C° 0 mm 6 m/s 765 mmHg 74%
    22:00 +5°C° 0 mm 6 m/s 765 mmHg 75%
    23:00 +7°C° 0 mm 6 m/s 765 mmHg 76%

    Après-demain, 23 Février, Dimanche

    Heure Température Précipitation Vent Pression Humidité
    00:00 +7°C° 0 mm 5 m/s 765 mmHg 77%
    01:00 +7°C° 0.3 mm 6 m/s 764 mmHg 80%
    02:00 +6°C° 0.3 mm 7 m/s 763 mmHg 84%
    03:00 +6°C° 0.3 mm 7 m/s 762 mmHg 88%
    04:00 +9°C° 0.4 mm 8 m/s 761 mmHg 88%
    05:00 +9°C° 0.4 mm 10 m/s 759 mmHg 88%
    06:00 +11°C° 0.4 mm 11 m/s 758 mmHg 88%
    07:00 +11°C° 0.1 mm 11 m/s 758 mmHg 86%
    08:00 +12°C° 0.1 mm 11 m/s 757 mmHg 84%
    09:00 +12°C° 0.1 mm 11 m/s 757 mmHg 83%
    10:00 +12°C° 0.1 mm 11 m/s 757 mmHg 82%
    11:00 +12°C° 0.1 mm 11 m/s 758 mmHg 82%
    12:00 +12°C° 0.1 mm 11 m/s 758 mmHg 81%
    13:00 +12°C° 0 mm 10 m/s 759 mmHg 78%
    14:00 +11°C° 0 mm 9 m/s 760 mmHg 75%
    15:00 +10°C° 0 mm 9 m/s 761 mmHg 72%
    16:00 +9°C° 0 mm 7 m/s 762 mmHg 72%
    17:00 +7°C° 0 mm 6 m/s 763 mmHg 71%
    18:00 +6°C° 0 mm 4 m/s 765 mmHg 71%
    19:00 +6°C° 0 mm 4 m/s 765 mmHg 72%
    20:00 +5°C° 0 mm 3 m/s 766 mmHg 73%
    21:00 +6°C° 0 mm 2 m/s 767 mmHg 74%
    22:00 +6°C° 0 mm 2 m/s 767 mmHg 74%
    23:00 +6°C° 0 mm 1 m/s 768 mmHg 74%

    24 Février, Lundi

    Heure Température Précipitation Vent Pression Humidité
    00:00 +6°C° 0 mm 1 m/s 768 mmHg 74%
    01:00 +6°C° 0 mm 1 m/s 767 mmHg 73%
    02:00 +5°C° 0 mm 2 m/s 766 mmHg 72%
    03:00 +5°C° 0 mm 3 m/s 765 mmHg 71%
    04:00 +5°C° 0 mm 4 m/s 765 mmHg 75%
    05:00 +5°C° 0 mm 5 m/s 764 mmHg 79%
    06:00 +6°C° 0 mm 5 m/s 763 mmHg 83%
    07:00 +7°C° 0 mm 6 m/s 762 mmHg 85%
    08:00 +8°C° 0 mm 7 m/s 761 mmHg 88%
    09:00 +9°C° 0 mm 7 m/s 760 mmHg 91%
    10:00 +9°C° 0 mm 8 m/s 760 mmHg 87%
    11:00 +10°C° 0 mm 9 m/s 759 mmHg 84%
    12:00 +9°C° 0 mm 10 m/s 758 mmHg 81%
    13:00 +9°C° 0 mm 10 m/s 757 mmHg 81%
    14:00 +10°C° 0 mm 9 m/s 757 mmHg 81%
    15:00 +10°C° 0 mm 9 m/s 756 mmHg 81%
    16:00 +10°C° 0.2 mm 9 m/s 756 mmHg 82%
    17:00 +10°C° 0.2 mm 8 m/s 756 mmHg 83%
    18:00 +10°C° 0.2 mm 8 m/s 755 mmHg 84%
    19:00 +8°C° 0 mm 7 m/s 756 mmHg 82%
    20:00 +6°C° 0 mm 7 m/s 756 mmHg 79%
    21:00 +5°C° 0 mm 6 m/s 756 mmHg 77%
    22:00 +5°C° 0 mm 6 m/s 756 mmHg 77%
    23:00 +4°C° 0 mm 6 m/s 756 mmHg 77%

    25 Février, Mardi

    Heure Température Précipitation Vent Pression Humidité
    00:00 +5°C° 0 mm 5 m/s 756 mmHg 78%
    01:00 +4°C° 0 mm 6 m/s 756 mmHg 75%
    02:00 +3°C° 0 mm 6 m/s 756 mmHg 72%
    03:00 +3°C° 0 mm 6 m/s 755 mmHg 70%
    04:00 +3°C° 0 mm 6 m/s 755 mmHg 69%
    05:00 +3°C° 0 mm 6 m/s 755 mmHg 68%
    06:00 +3°C° 0 mm 5 m/s 755 mmHg 67%
    07:00 +4°C° 0 mm 6 m/s 755 mmHg 67%
    08:00 +4°C° 0 mm 6 m/s 754 mmHg 67%
    09:00 +4°C° 0 mm 6 m/s 754 mmHg 67%
    10:00 +5°C° 0 mm 7 m/s 753 mmHg 64%
    11:00 +6°C° 0 mm 7 m/s 753 mmHg 62%
    12:00 +6°C° 0 mm 7 m/s 753 mmHg 60%
    13:00 +6°C° 0.3 mm 8 m/s 752 mmHg 64%
    14:00 +6°C° 0.3 mm 8 m/s 751 mmHg 69%
    15:00 +5°C° 0.3 mm 8 m/s 750 mmHg 73%
    16:00 +5°C° 1 mm 8 m/s 749 mmHg 77%
    17:00 +4°C° 1 mm 8 m/s 749 mmHg 82%
    18:00 +2°C° 1 mm 8 m/s 748 mmHg 86%
    19:00 +2°C° 0.3 mm 8 m/s 749 mmHg 81%
    20:00 +1°C° 0.3 mm 8 m/s 749 mmHg 76%
    21:00 +1°C° 0.3 mm 8 m/s 750 mmHg 71%
    22:00 0°C° 0 mm 8 m/s 750 mmHg 71%
    23:00 0°C° 0 mm 8 m/s 751 mmHg 72%

    26 Février, Mercredi

    Heure Température Précipitation Vent Pression Humidité
    00:00 0°C° 0 mm 8 m/s 751 mmHg 72%
    01:00 -1°C° 0 mm 8 m/s 751 mmHg 72%
    02:00 -1°C° 0 mm 8 m/s 751 mmHg 72%
    03:00 -1°C° 0 mm 8 m/s 751 mmHg 72%
    04:00 -1°C° 0 mm 8 m/s 751 mmHg 71%
    05:00 -1°C° 0 mm 8 m/s 752 mmHg 69%
    06:00 -1°C° 0 mm 8 m/s 752 mmHg 68%
    07:00 -1°C° 0 mm 8 m/s 752 mmHg 68%
    08:00 0°C° 0 mm 9 m/s 753 mmHg 68%
    09:00 +1°C° 0 mm 10 m/s 753 mmHg 68%
    10:00 +2°C° 0.1 mm 10 m/s 753 mmHg 64%
    11:00 +2°C° 0.1 mm 10 m/s 753 mmHg 61%
    12:00 +3°C° 0.1 mm 9 m/s 754 mmHg 57%
    13:00 +3°C° 0.1 mm 9 m/s 754 mmHg 56%
    14:00 +5°C° 0.1 mm 9 m/s 754 mmHg 55%
    15:00 +5°C° 0.1 mm 8 m/s 754 mmHg 55%
    16:00 +4°C° 0 mm 7 m/s 754 mmHg 59%
    17:00 +3°C° 0 mm 6 m/s 754 mmHg 63%
    18:00 +2°C° 0 mm 5 m/s 754 mmHg 68%
    19:00 +2°C° 0 mm 5 m/s 755 mmHg 71%
    20:00 +1°C° 0 mm 5 m/s 755 mmHg 74%
    21:00 +1°C° 0 mm 5 m/s 756 mmHg 77%
    22:00 +1°C° 0 mm 5 m/s 756 mmHg 77%
    23:00 0°C° 0 mm 5 m/s 756 mmHg 77%
    Voir plus